Location: Bay?nd?r
(36.7835°N, 29.9558°E)
Time: 20:18:03
(UTC+00:00)

Daily predictions for brighter satellites

Satellite Brightness Start Highest point End
(mag) Time Altitude Azimuth Time Altitude Azimuth Time Altitude Azimuth
FALCON 9 R/B 4.2 15:40:44 10° WSW 15:45:53 36° S 16:01:34 10° ESE
NOSS 0 Rocket 4.3 15:52:30 10° N 15:58:29 45° ENE 16:04:23 10° SE
Thor Agena Rocket 4.1 15:54:54 10° S 15:59:54 64° WSW 16:05:01 10° NNW
SMAP 4.4 15:56:08 10° S 16:00:35 46° W 16:05:05 10° NNW
IRS-1C 4.2 15:55:32 10° SSE 16:00:51 89° WSW 16:06:12 10° NNW
Atlas Centaur 2 3.4 15:54:10 10° WSW 16:01:59 53° S 16:08:54 10° ESE
Cosmos 1725 Rocket 4.2 15:58:36 10° N 16:04:52 80° W 16:11:08 10° S
Cosmos 2344 4.4 15:57:56 10° S 16:05:13 30° ESE 16:11:25 10° NE
Cosmos 2151 Rocket 3.7 16:11:18 10° N 16:15:49 85° W 16:20:18 10° S
Cosmos 2297 Rocket 2.2 16:11:08 10° SSW 16:16:47 90° NW 16:22:29 10° NNE
Cosmos 44 Rocket 3.3 16:12:44 10° SSW 16:17:30 65° ESE 16:22:29 10° NE
USA 306 1.8 16:16:53 10° NNW 16:19:01 28° NNE 16:19:45 19° E
YAOGAN 1 2.6 16:15:11 10° SSE 16:19:19 56° ENE 16:23:30 10° N
Cosmos 1975 Rocket 4.0 16:15:52 10° SE 16:19:25 25° E 16:22:56 10° NE
PSLV R/B 4.1 16:17:09 10° SE 16:20:52 33° ENE 16:24:34 10° N
SPOT 1/Viking Rocket 3.8 16:17:27 10° S 16:22:33 76° WSW 16:27:41 10° NNW
Cosmos 1455 Rocket 3.7 16:19:51 10° NNE 16:23:44 32° ENE 16:27:35 10° SE
Aureole 3 Rocket 2.7 16:21:26 10° N 16:24:44 40° ENE 16:27:38 10° SSE
CZ-4C R/B 3.9 16:22:51 10° W 16:26:00 20° NW 16:29:40 10° N
Cosmos 2061 Rocket 4.0 16:19:54 10° N 16:26:18 88° E 16:32:33 10° S
Helios 1A Rocket 3.8 16:24:49 13° ENE 16:26:28 18° E 16:28:46 10° SE
Cosmos 2228 4.3 16:24:16 10° NNE 16:27:17 19° ENE 16:30:18 10° ESE
COSMO-SKYMED 1 2.3 16:23:26 10° NNE 16:27:33 82° ESE 16:31:39 10° S
CZ-2D R/B 3.3 16:26:18 10° SSE 16:30:08 62° ENE 16:34:03 10° N
Delta 2 Rocket 2.6 16:27:18 10° W 16:30:19 72° S 16:32:28 18° E
Meteor 2-1 Rocket 4.4 16:25:23 10° N 16:31:15 89° W 16:37:11 10° S
Okean 1 Rocket 3.3 16:34:39 10° N 16:39:01 73° W 16:43:19 10° S
Okean 2 Rocket 3.9 16:39:47 10° NNW 16:44:03 52° W 16:48:16 10° S
Cosmos 2263 Rocket 2.8 16:40:14 10° SSE 16:45:19 35° ESE 16:49:56 12° NE
Cosmos 1602 2.9 16:43:10 10° S 16:45:51 50° E 16:47:50 16° NNE
SJ-6B 3.3 16:46:06 26° E 16:46:45 28° ENE 16:49:44 10° NNE
Cosmos 1980 3.6 16:46:16 10° NNW 16:51:56 72° ENE 16:57:33 10° SSE
ATLAS 5 CENTAUR R/B 4.3 16:48:09 10° WNW 16:52:13 26° WSW 16:56:56 10° S
COSMOS 2428 3.9 16:49:32 10° NW 16:54:58 45° WSW 17:00:21 10° S
Cosmos 2237 Rocket 2.1 16:51:33 10° NNW 16:57:14 74° ENE 17:02:55 10° SSE
SeaSat 1 3.5 16:54:26 10° S 16:59:07 46° WSW 17:03:49 10° NW
Meteor 1-27 4.2 16:53:37 10° N 16:59:26 77° E 17:05:15 10° SSE
Resurs 01 Rocket 1.5 16:58:25 10° SSE 17:02:47 79° ENE 17:07:12 10° N
Cosmos 1125 Rocket 4.2 16:59:56 10° NNW 17:04:59 55° WSW 17:10:03 10° S
SPOT 5 4.1 17:06:50 24° NE 17:06:50 24° NE 17:09:44 10° NNE
USA 234 3.7 17:03:10 10° SSE 17:09:37 62° SW 17:16:06 10° NW
NOAA 6 4.5 17:10:34 10° S 17:15:38 63° WSW 17:20:46 10° NNW
Cosmos 2227 Rocket 2.4 17:10:29 10° SSW 17:16:05 70° WNW 17:21:44 10° NNE
Cosmos 783 Rocket 4.4 17:13:00 10° S 17:18:15 76° ESE 17:22:45 14° NNE
Tsikada Rocket 4.2 17:13:51 10° SSE 17:19:31 41° E 17:25:13 10° NNE
SL-16 R/B 3.1 17:17:57 10° N 17:22:04 30° NE 17:22:04 30° NE
Tiangong -0.7 17:20:54 10° WNW 17:23:23 33° NNW 17:23:23 33° NNW
Cosmos 1346 Rocket 2.9 17:23:06 10° SSW 17:26:41 62° W 17:28:21 29° N
Gbstr 26 Del rocket 4.4 17:34:10 10° WSW 17:40:50 70° NW 17:44:25 34° NE
Haruka 3.4 17:37:32 10° WSW 17:42:50 42° S 17:42:50 42° S
CSL-04 Debris 4.5 17:49:09 53° NNE 17:49:09 53° NNE 17:53:24 10° N
Atlas Centaur 2 3.2 17:43:16 10° W 17:50:26 43° SSW 17:51:57 38° SSE
NOSS 3-4 (A) 3.9 17:44:33 10° NNW 17:51:44 84° WSW 17:55:54 33° SSE
NOSS 3-4 (C) 3.9 17:44:49 10° NNW 17:52:02 85° WSW 17:56:04 34° SSE
CSL-04 Rocket 3.8 17:53:36 60° N 17:53:36 60° N 17:57:54 10° N
Cosmos 2150 Rocket 4.3 17:47:36 10° NNW 17:52:40 61° WSW 17:54:26 38° SSW
Cosmos 2034 Rocket 3.9 17:47:39 10° N 17:53:51 87° W 17:59:42 12° S
Cosmos 2298 Rocket 4.4 17:50:39 10° NNW 17:55:52 62° WSW 17:57:29 42° SSW
BREEZE M DEB (TANK) 3.9 17:37:52 10° SW 17:57:35 74° SE 17:58:50 62° E
DNEPR-1 R/B 4.5 18:05:42 10° NW 18:10:09 64° WNW 18:10:09 64° WNW
Cosmos 2219 3.6 18:10:00 10° SSW 18:15:11 60° W 18:15:11 60° W
Cosmos 2344 4.3 18:11:35 10° WSW 18:19:18 45° NW 18:23:43 22° N
Cosmos 2263 Rocket 3.9 18:24:17 10° WSW 18:29:11 30° WNW 18:31:44 21° NNW
H-2A R/B 4.2 18:05:36 10° W 18:33:39 48° SSW 18:34:11 47° SSW
SL-16 R/B 4.5 19:02:02 10° NW 19:03:58 20° NW 19:03:58 20° NW
